Other Public Products
Issued by NWS Grand Forks, ND

Home | Current Version | Previous Version | Graphics & Text | Print | Product List | Glossary On
Versions: 1 2 3 4 5 6 7 8 9 10 11 12 13 14 15 16 17 18 19 20 21 22 23 24 25 26 27 28 29 30 31 32 33 34 35 36 37 38 39 40 41 42 43 44 45 46 47 48 49 50
000
FPUS83 KFGF 250510
OPUFGF
PRAIRIE TO PINES WEATHER ROUNDUP
NATIONAL WEATHER SERVICE EASTERN NORTH DAKOTA/GRAND FORKS ND
1100 PM CST SAT FEB 24 2018

 **SATELLITE DATA USED TO AUGMENT SKY COVER AT AUTOMATED STATIONS**
 *****  WEATHER ACROSS EASTERN NORTH DAKOTA  *****

CITY           SKY/WX    TMP DP  RH WIND       PRES   REMARKS
GRAND FORKS    LGT SNOW  17  15  92 CALM      29.58F FOG
GRND FORKS AFB LGT SNOW  15  12  89 CALM      29.57F FOG
GRND FORKS NWS   N/A     15  14  95 NE1       29.55F
BUXTON           N/A    N/A N/A N/A CALM        N/A
DEVILS LAKE    MOCLDY    15  12  88 S3        29.54F
FARGO          CLOUDY    15  13  91 N6        29.56F WCI   6
WAHPETON ARPT  FAIR      12  10  92 NW7       29.56F WCI   2
$$

 *****  WEATHER ACROSS CENTRAL AND WESTERN NORTH DAKOTA  *****

CITY           SKY/WX    TMP DP  RH WIND       PRES   REMARKS
JAMESTOWN      FAIR      11   9  92 W6        29.55F WCI   1
BISMARCK       FAIR       5   2  87 SE3       29.59F
MINOT          CLOUDY    21  13  71 SW10      29.53S WCI  10
MINOT AFB      CLOUDY    19  14  79 W7          N/A  WCI  10
GARRISON         N/A     16  11  80 W14       29.54F WCI   2
WILLISTON      CLOUDY    21  17  84 W7        29.59S WCI  12
DICKINSON      MOCLDY    16   9  74 W20       29.55S WCI  -1
HETTINGER      FAIR       9   3  77 W16       29.61F WCI  -8
$$

 *****  OTHER OBSERVATIONS NORTHEAST NORTH DAKOTA  *****

CITY           SKY/WX    TMP DP  RH WIND       PRES   REMARKS
WALHALLA       FAIR      16  16 100 S9        29.58F FOG     WCI   4
LANGDON        NOT AVBL
CAVALIER       LGT SNOW  16  16 100 S6        29.58F WCI   7
GRAFTON        NOT AVBL
CANDO          FAIR      12  12 100 S6        29.55F WCI   3
FORT TOTTEN      N/A     14  12  90 S3        29.95S
ROLLA          MOCLDY    10  12 100 CALM      29.50F
RUGBY          NOT AVBL
 ***** THE ABOVE OBSERVATIONS ARE NON NWS ARE NOT QUALITY
        CONTROLLED AND MAY MIS-REPORT RAIN FOR SNOW...
$$

 *****  OTHER OBSERVATIONS SOUTHEAST NORTH DAKOTA *****

CITY           SKY/WX    TMP DP  RH WIND       PRES   REMARKS
COOPERSTOWN    LGT SNOW  16  14  93 W9        29.56F WCI   4
VALLEY CITY    NOT AVBL
OAKES            N/A     14  14 100 W8        29.58F WCI   3
GWINNER          N/A      9   7  92 CALM      29.57F
SHEYENNE NWR     N/A     12  11  96 W5        29.95  WCI   4
BUFFALO          N/A     14  12  91 NW2         N/A
WYNDMERE       NOT AVBL
 ***** THE ABOVE OBSERVATIONS ARE NON NWS ARE NOT QUALITY
       CONTROLLED AND MAY MIS-REPORT RAIN FOR SNOW...
$$

  *****  WEATHER ACROSS NORTHERN MINNESOTA  *****

CITY           SKY/WX    TMP DP  RH WIND       PRES   REMARKS
FLAG ISLAND    MIX PCPN  19  12  73 CALM      29.59F
WARROAD        LGT SNOW  21  16  79 N3        29.59F
ROSEAU         LGT SNOW  19  16  86 N3        29.58F
HALLOCK        LGT SNOW  19  18  93 E5        29.58F WCI  13
THF RVR FALLS  LGT SNOW  18  16  92 N7        29.56F FOG     WCI   9
HALSTAD        NOT AVBL
FOSSTON        LGT SNOW  16  14  93 N8        29.53F WCI   5
BAUDETTE       LGT SNOW  21  19  92 N6        29.55F VSB 3/4 WCI  13
WASKISH        LGT SNOW  21  19  93 NE6       29.51F WCI  14
CROOKSTON      MIX PCPN  19  18  93 CALM      29.58F
$$
  *****  WEATHER ACROSS CENTRAL AND WEST MINNESOTA  *****

CITY           SKY/WX    TMP DP  RH WIND       PRES   REMARKS
BEMIDJI        LGT SNOW  19  17  93 CALM      29.49F VSB 3/4
PARK RAPIDS    LGT SNOW  20  16  84 N5        29.47F VSB 1   WCI  13
WADENA         LGT SNOW  18  18 100 NW3       29.48F
DETROIT LAKES  LGT SNOW  21  19  93 CALM      29.52F
MOORHEAD       MIX PCPN  14  12  92 N9        29.57F WCI   2
FERGUS FALLS   FLURRIES  18  18 100 NW7       29.54F WCI   8
ELBOW LAKE     FLURRIES  18  17  97 NW6       29.54S WCI   9
MORRIS MN      FLURRIES  14  12  92 W12       29.53F WCI   0
STAPLES        LGT SNOW  19  18  93 CALM      29.47F
WHEATON        FAIR      12  10  92 W9        29.59F WCI   0
$$
  *****  WEATHER ELSEWHERE ACROSS MINNESOTA  *****

CITY           SKY/WX    TMP DP  RH WIND       PRES   REMARKS
DULUTH         LGT SNOW  27  25  92 E20       29.44F VSB 3/4 WCI  13
INTRNTL FALLS  SNOW      23  21  92 NE7       29.53F VSB 1/2 WCI  15
ELY            LGT SNOW  25  23  93 E7        29.48F VSB 1   WCI  17
CLOQUET        LGT SNOW  25  23  93 E12       29.43F WCI  14
BRAINERD       LGT SNOW  23  19  85 NW6       29.45F FOG     WCI  16
HIBBING        LGT SNOW  23  22  96 NE6       29.46F VSB 3/4 WCI  16
ALEXANDRIA     LGT SNOW  20  18  92 NW7       29.50F FOG     WCI  11
SAINT CLOUD    LGT SNOW  25  24  96 W12       29.46F FOG     WCI  14
MINNEAPOLIS    CLOUDY    28  28 100 W8        29.47F FOG     WCI  20
$$

  *****  WEATHER ACROSS SOUTH DAKOTA  *****

CITY           SKY/WX    TMP DP  RH WIND       PRES   REMARKS
SIOUX FALLS    CLOUDY    12   8  84 W16G23    29.68S WCI  -5
BROOKINGS      CLOUDY    13  10  88 W18       29.62R WCI  -4
WATERTOWN      CLOUDY    13  13 100 W12       29.57S FOG     WCI  -1
HURON          FAIR       8   5  87 W7        29.68R WCI  -3
SISSETON         N/A     15  12  88 W8        29.56F WCI   4
ABERDEEN       FAIR       6   5  95 SW8       29.62F WCI  -7
MITCHELL       FAIR      11   7  84 W14       29.73R WCI  -5
PIERRE         FAIR      19  11  70 W17       29.68F WCI   4
MOBRIDGE       MOCLDY    13   6  74 NW9       29.60F WCI   1
RAPID CITY     FAIR      13   5  70 E5        29.70S WCI   5
$$

  *****  SOME WEATHER IN NEARBY STATES *****

CITY           SKY/WX    TMP DP  RH WIND       PRES   REMARKS
GLASGOW MT     MOCLDY    20  17  88 W10       29.67R WCI   9
GREAT FALLS MT FAIR      16   6  65 SW16      29.72S WCI   1
CHEYENNE WY    FAIR      20   3  48 W18       29.78S WCI   5
SCOTTSBLUFF NE FAIR      25  12  58 W10       29.81R WCI  15
OMAHA NE       FAIR      29  23  78 W15       29.81R WCI  18
DES MOINES IA  CLOUDY    30  26  85 W16       29.72R WCI  19
DAVENPORT IA   CLOUDY    36  31  82 W25G37    29.62R
CHICAGO IL     CLOUDY    47  44  90 SE15      29.45F
EAU CLAIRE WI  LGT SNOW  31  30  96 SE3       29.43F FOG
LA CROSSE WI   CLOUDY    34  33  96 S5        29.46F
$$

  *****  SOME NATIONAL WEATHER *****

CITY           SKY/WX    TMP DP  RH WIND       PRES   REMARKS
LA GUARDIA NY  CLOUDY    43  39  86 NE8       30.21S
RALEIGH NC     FAIR      67  60  78 SW14      30.08R
ATLANTA GA     FAIR      70  59  68 SW9       30.07S
NEW ORLEANS LA FAIR      74  71  91 S8        30.03F
OKLAHOMA CITY  FAIR      34  32  92 S3        30.01R
ALBUQUERQUE NM FAIR      30  10  43 E8        30.01F WCI  22
SALT LAKE CITY CLOUDY    28  19  69 SE9       30.00S WCI  19
LOS ANGELES CA FAIR      53  38  56 W8        30.20F
BOISE ID       CLOUDY    27  23  85 NW5       30.10R WCI  22
SEATTLE WA     CLOUDY    42  32  67 S15G29    30.12S
$$

*** WEATHER ACROSS MANITOBA...SASKATCHEWAN AND ONTARIO ***
                ***ONTARIO***

CITY           SKY/WX    TMP DP  RH WIND       PRES   REMARKS
GERALDTON      CLOUDY    18  16  93 E6        29.75F WCI   9
THUNDER BAY    LGT SNOW  25  23  93 E13G20    29.64F WCI  13
SIOUX LOOKOUT  CLOUDY    23  12  63 VRB2      29.62F
TORONTO        CLOUDY    36  27  69 E16G22    30.05F
BIG TROUT LK   CLEAR     19   9  63 S8        29.62S WCI   9
PICKLE LAKE    NOT AVBL
DRYDEN         CLOUDY    23  12  63 E7        29.59F WCI  15
KENORA         CLOUDY    21  10  63 E2        29.59F
$$
                *** MANITOBA***

CITY           SKY/WX    TMP DP  RH WIND       PRES   REMARKS
BRANDON        FOG        1  -4  78 CALM      29.51F VSB 1/8
DAUPHIN        PTCLDY    16  10  79 W8        29.51F WCI   5
ISLAND LAKE    CLEAR     19  10  68 SW5       29.56S WCI  13
PILOT MOUND      N/A     16  14  93 S6          N/A  WCI   7
THE PAS        FLURRIES  16  12  86 NW2       29.49F
THOMPSON       FLURRIES  10   7  85 CALM      29.51S
WINNIPEG       LGT SNOW  18  16  93 SE12      29.58F DRFTSNOWWCI   5
LYNN LAKE      MOCLDY     5   1  85 N2        29.53R
CHURCHILL      MOCLDY     1  -4  78 NW10      29.57R WCI -14
GILLAM         LGT SNOW  12   9  85 SW6       29.53S WCI   3
$$
                ***SASKATCHEWAN***

CITY           SKY/WX    TMP DP  RH WIND       PRES   REMARKS
ESTEVAN        FLURRIES  18  16  93 W12       29.52S WCI   5
KINDERSLEY     PTCLDY    12  10  92 W7        29.59R WCI   2
LLOYDMINSTER   PTCLDY     5   1  85 SW5       29.53F WCI  -4
PRINCE ALBERT  FLURRIES  18  10  73 NW6       29.57R WCI   9
REGINA         CLOUDY    14  10  85 W13       29.54R WCI   0
YORKTON        CLOUDY    18  14  86 SW10      29.48F W


USA.gov is the U.S. government's official web portal to all federal, state and local government web resources and services.